Regional Weather Roundup
Issued by NWS Tiyan, Guam

Home | Current Version | Previous Version | Text Only | Print | Product List | Glossary On
Versions: 1 2 3 4 5 6 7 8 9 10 11 12 13 14 15 16 17 18 19 20 21 22 23 24 25 26 27 28 29 30 31 32 33 34 35 36 37 38 39 40 41 42 43 44 45 46 47 48 49 50
000
ASGM40 PGUM 260812
RWRGUM
WEATHER ROUNDUP FOR THE MARIANAS
NATIONAL WEATHER SERVICE TIYAN GU
600 PM CHST WED APR 26 2017

GUZ001>004-260900-
MARIANA ISLANDS-

CITY           SKY/WX    TMP DP  RH WIND       PRES   REMARKS
GUAM AIRPORT   PTCLDY    79  79 100 E5        29.88S
ANDERSEN AFB   LGT RAIN  77  73  88 SE9       29.89S FOG
ROTA AIRPORT   MOCLDY    79  75  89 E9        29.87S
TINIAN AP      MOCLDY    82  75  78 E7        29.86R
SAIPAN AP      MOCLDY    82  75  78 E12       29.87R

$$




USA.gov is the U.S. government's official web portal to all federal, state and local government web resources and services.